GW4780 Weather Reports


time (UTC)temp
C
wind
direction
speed
KPH
gust
KPH
rain 1hr
cm
rain 24hr
cm
rain mn
cm
humidity
%
barometer
mb
20260510234504 2 158 0.0 3.2 0.00 0.00 0.00 86 1012.7
20260510234003 2 158 0.0 1.6 0.00 0.00 0.00 86 1012.8
20260510233717 2 158 0.0 3.2 0.00 0.00 0.00 86 1012.8
20260510233004 2 158 0.0 3.2 0.00 0.00 0.00 86 1013.0
20260510232503 2 158 0.0 1.6 0.00 0.00 0.00 85 1013.0
20260510232004 2 158 0.0 1.6 0.00 0.00 0.00 85 1013.1
20260510231503 2 158 0.0 3.2 0.00 0.00 0.00 85 1013.1
20260510231218 2 158 0.0 3.2 0.00 0.00 0.00 85 1013.1
20260510230504 2 158 0.0 1.6 0.00 0.00 0.00 84 1013.4
20260510230003 2 158 0.0 1.6 0.00 0.00 0.00 84 1013.5
20260510225504 3 158 0.0 1.6 0.00 0.00 0.00 84 1013.5
20260510225004 3 158 0.0 1.6 0.00 0.00 0.00 83 1013.6
20260510224504 3 158 0.0 3.2 0.00 0.00 0.00 83 1013.7
20260510224003 3 158 0.0 3.2 0.00 0.00 0.00 82 1013.9
20260510223503 3 158 0.0 1.6 0.00 0.00 0.00 82 1013.9
20260510223004 3 0 0.0 0.0 0.00 0.00 0.00 81 1013.9
20260510222503 3 158 0.0 1.6 0.00 0.00 0.00 81 1014.1
20260510222003 3 158 0.0 1.6 0.00 0.00 0.00 80 1014.1
20260510221503 3 158 0.0 1.6 0.00 0.00 0.00 80 1014.1
20260510221004 3 158 0.0 1.6 0.00 0.00 0.00 80 1014.2
20260510220504 4 158 0.0 1.6 0.00 0.00 0.00 79 1014.3
20260510220003 4 158 0.0 3.2 0.00 0.00 0.00 79 1014.4
20260510215503 4 158 0.0 3.2 0.00 0.00 0.00 79 1014.4
20260510215219 4 158 0.0 3.2 0.00 0.00 0.00 79 1014.5
20260510214718 4 158 0.0 1.6 0.00 0.00 0.00 78 1014.6
20260510214004 4 158 0.0 1.6 0.00 0.00 0.00 78 1014.5
20260510213718 5 158 0.0 1.6 0.00 0.00 0.00 77 1014.6
20260510213003 5 158 0.0 1.6 0.00 0.00 0.00 76 1014.6
20260510212718 5 158 0.0 1.6 0.00 0.00 0.00 76 1014.6
20260510212003 5 158 0.0 1.6 0.00 0.00 0.00 74 1014.5
20260510211504 5 158 0.0 1.6 0.00 0.00 0.00 74 1014.6
20260510211004 5 158 0.0 1.6 0.00 0.00 0.00 74 1014.6
20260510210504 5 158 0.0 1.6 0.00 0.00 0.00 73 1014.8
20260510210217 5 158 0.0 1.6 0.00 0.00 0.00 73 1014.7
20260510205503 6 158 0.0 3.2 0.00 0.00 0.00 71 1014.8
20260510205219 6 158 0.0 3.2 0.00 0.00 0.00 72 1014.8
20260510204718 6 0 0.0 0.0 0.00 0.00 0.00 70 1014.8
20260510204004 6 0 0.0 0.0 0.00 0.00 0.00 69 1014.8
20260510203718 6 0 0.0 0.0 0.00 0.00 0.00 69 1014.8
20260510203003 7 158 0.0 1.6 0.00 0.00 0.00 68 1014.8
20260510202504 7 158 0.0 1.6 0.00 0.00 0.00 68 1014.8
20260510202003 7 158 0.0 1.6 0.00 0.00 0.00 67 1014.9
20260510201503 7 158 0.0 1.6 0.00 0.00 0.00 66 1014.9
20260510201003 7 158 0.0 1.6 0.00 0.00 0.00 65 1015.0
20260510200503 8 158 0.0 3.2 0.00 0.00 0.00 63 1015.0
20260510200216 8 158 1.6 3.2 0.00 0.00 0.00 63 1015.0
20260510195503 8 156 1.6 3.2 0.00 0.00 0.00 62 1015.1
20260510195004 8 151 1.6 3.2 0.00 0.00 0.00 60 1015.0
20260510194504 8 156 1.6 4.8 0.00 0.00 0.00 60 1015.0
20260510194004 8 150 1.6 4.8 0.00 0.00 0.00 60 1015.1
20260510193504 9 109 0.0 3.2 0.00 0.00 0.00 59 1015.2
20260510193004 9 105 0.0 1.6 0.00 0.00 0.00 59 1015.3
20260510192504 9 95 0.0 3.2 0.00 0.00 0.00 58 1015.3
20260510192003 10 79 1.6 4.8 0.00 0.00 0.00 57 1015.3
20260510191505 10 72 1.6 4.8 0.00 0.00 0.00 57 1015.2
20260510191003 10 70 1.6 6.4 0.00 0.00 0.00 57 1015.3
20260510190504 10 72 3.2 9.7 0.00 0.00 0.00 56 1015.4
20260510190003 10 70 3.2 9.7 0.00 0.00 0.00 55 1015.4
20260510185504 10 66 3.2 6.4 0.00 0.00 0.00 55 1015.5
20260510185218 10 67 1.6 6.4 0.00 0.00 0.00 55 1015.5
20260510184504 10 69 1.6 4.8 0.00 0.00 0.00 54 1015.5
20260510184004 10 68 1.6 4.8 0.00 0.00 0.00 54 1015.6
20260510183504 10 68 1.6 4.8 0.00 0.00 0.00 53 1015.5
20260510183003 10 64 1.6 4.8 0.00 0.00 0.00 54 1015.5
20260510182717 10 66 3.2 6.4 0.00 0.00 0.00 54 1015.6
20260510182003 10 46 3.2 12.9 0.00 0.00 0.00 52 1015.7
20260510181503 11 27 3.2 12.9 0.00 0.00 0.00 52 1015.8
20260510181003 11 35 3.2 9.7 0.00 0.00 0.00 52 1015.7
20260510180504 11 32 3.2 9.7 0.00 0.00 0.00 51 1015.7
20260510180003 11 29 3.2 8.0 0.00 0.00 0.00 51 1015.8
20260510175503 11 37 3.2 12.9 0.00 0.00 0.00 52 1015.8
20260510175004 11 47 3.2 12.9 0.00 0.00 0.00 51 1015.8
20260510174504 11 57 3.2 9.7 0.00 0.00 0.00 51 1016.0
20260510174004 11 61 1.6 9.7 0.00 0.00 0.00 52 1016.0
20260510173504 11 40 3.2 6.4 0.00 0.00 0.00 52 1016.0
20260510173003 11 22 3.2 11.3 0.00 0.00 0.00 51 1016.1
20260510172716 11 25 3.2 11.3 0.00 0.00 0.00 51 1016.1
20260510172219 11 35 3.2 11.3 0.00 0.00 0.00 50 1016.1
20260510171504 11 49 4.8 8.0 0.00 0.00 0.00 51 1016.1
20260510171004 11 53 3.2 8.0 0.00 0.00 0.00 50 1016.2
20260510170503 11 47 3.2 6.4 0.00 0.00 0.00 51 1016.3
20260510170003 11 47 3.2 6.4 0.00 0.00 0.00 51 1016.3
20260510165503 11 52 3.2 12.9 0.00 0.00 0.00 50 1016.4
20260510165219 11 48 3.2 12.9 0.00 0.00 0.00 50 1016.3
20260510164716 11 28 4.8 14.5 0.00 0.00 0.00 50 1016.5
20260510164004 12 33 6.4 14.5 0.00 0.00 0.00 49 1016.5
20260510163504 12 49 4.8 16.1 0.00 0.00 0.00 48 1016.5
20260510163003 12 42 4.8 16.1 0.00 0.00 0.00 46 1016.6
20260510162503 12 56 4.8 16.1 0.00 0.00 0.00 48 1016.7
20260510162004 12 71 4.8 14.5 0.00 0.00 0.00 47 1016.8
20260510161503 12 67 4.8 14.5 0.00 0.00 0.00 48 1016.9
20260510161003 12 59 6.4 14.5 0.00 0.00 0.00 47 1016.9
20260510160718 12 42 6.4 14.5 0.00 0.00 0.00 47 1017.0
20260510160219 12 22 4.8 14.5 0.00 0.00 0.00 47 1017.1
20260510155503 12 27 4.8 14.5 0.00 0.00 0.00 45 1017.1
20260510155217 12 29 4.8 14.5 0.00 0.00 0.00 46 1017.1
20260510154504 12 31 6.4 16.1 0.00 0.00 0.00 47 1017.2
20260510154004 13 11 6.4 19.3 0.00 0.00 0.00 47 1017.2
20260510153503 12 10 8.0 19.3 0.00 0.00 0.00 44 1017.1
20260510153217 12 22 6.4 19.3 0.00 0.00 0.00 46 1017.2
20260510152503 13 57 8.0 17.7 0.00 0.00 0.00 45 1017.3
20260510152003 13 48 6.4 16.1 0.00 0.00 0.00 45 1017.3
20260510151718 13 38 6.4 14.5 0.00 0.00 0.00 45 1017.3
20260510151003 13 21 6.4 19.3 0.00 0.00 0.00 46 1017.4
20260510150504 13 11 4.8 16.1 0.00 0.00 0.00 45 1017.4
20260510150003 13 23 6.4 17.7 0.00 0.00 0.00 44 1017.6
20260510145503 13 23 6.4 22.5 0.00 0.00 0.00 44 1017.6
20260510145219 13 12 6.4 22.5 0.00 0.00 0.00 45 1017.6
20260510144503 13 14 6.4 19.3 0.00 0.00 0.00 44 1017.7
20260510144004 13 32 6.4 16.1 0.00 0.00 0.00 45 1017.9
20260510143504 13 37 4.8 16.1 0.00 0.00 0.00 45 1018.1
20260510143004 13 43 6.4 19.3 0.00 0.00 0.00 46 1018.1
20260510142504 13 25 6.4 19.3 0.00 0.00 0.00 46 1018.3
20260510142003 13 17 6.4 19.3 0.00 0.00 0.00 45 1018.3
20260510141503 13 29 6.4 19.3 0.00 0.00 0.00 46 1018.2
20260510141003 13 42 4.8 17.7 0.00 0.00 0.00 47 1018.3
20260510140503 13 40 6.4 16.1 0.00 0.00 0.00 48 1018.4
20260510140004 13 27 6.4 16.1 0.00 0.00 0.00 45 1018.5
20260510135503 13 34 6.4 17.7 0.00 0.00 0.00 45 1018.5
20260510135003 13 46 6.4 17.7 0.00 0.00 0.00 46 1018.5
20260510134503 13 42 6.4 17.7 0.00 0.00 0.00 46 1018.4
20260510134004 13 26 6.4 17.7 0.00 0.00 0.00 46 1018.5
20260510133504 13 27 6.4 17.7 0.00 0.00 0.00 44 1018.6
20260510133003 13 19 6.4 17.7 0.00 0.00 0.00 43 1018.7
20260510132719 13 5 4.8 16.1 0.00 0.00 0.00 45 1018.7
20260510132218 13 360 6.4 17.7 0.00 0.00 0.00 44 1018.8
20260510131503 13 17 9.7 20.9 0.00 0.00 0.00 46 1018.9
20260510131004 13 34 8.0 16.1 0.00 0.00 0.00 46 1018.9
20260510130504 13 28 6.4 16.1 0.00 0.00 0.00 47 1018.9
20260510130003 13 14 8.0 16.1 0.00 0.00 0.00 46 1018.9
20260510125504 13 16 8.0 17.7 0.00 0.00 0.00 46 1019.0
20260510125003 13 15 8.0 17.7 0.00 0.00 0.00 49 1019.0
20260510124503 13 20 8.0 19.3 0.00 0.00 0.00 47 1019.2
20260510124218 13 33 6.4 19.3 0.00 0.00 0.00 47 1019.1
20260510123503 13 55 6.4 20.9 0.00 0.00 0.00 48 1019.2
20260510123217 13 53 6.4 20.9 0.00 0.00 0.00 46 1019.2
20260510122504 13 46 4.8 16.1 0.00 0.00 0.00 47 1019.2
20260510122004 13 55 6.4 16.1 0.00 0.00 0.00 49 1019.3
20260510121503 13 51 8.0 17.7 0.00 0.00 0.00 50 1019.3
20260510121003 13 42 6.4 17.7 0.00 0.00 0.00 49 1019.5
20260510120503 13 25 6.4 20.9 0.00 0.00 0.00 51 1019.4
20260510120003 13 24 8.0 20.9 0.00 0.00 0.00 50 1019.6
20260510115503 12 19 8.0 20.9 0.00 0.00 0.00 51 1019.5
20260510115004 12 17 8.0 20.9 0.00 0.00 0.00 52 1019.6
20260510114504 13 13 8.0 20.9 0.00 0.00 0.00 52 1019.7
20260510114004 13 35 8.0 20.9 0.00 0.00 0.00 51 1019.7
20260510113503 13 60 8.0 17.7 0.00 0.00 0.00 51 1019.7
20260510113003 13 52 8.0 20.9 0.00 0.00 0.00 51 1019.8
20260510112504 13 49 8.0 20.9 0.00 0.00 0.00 53 1019.8
20260510112219 12 47 8.0 17.7 0.00 0.00 0.00 56 1019.8
20260510111504 12 30 8.0 20.9 0.00 0.00 0.00 55 1019.9
20260510111004 12 8 8.0 22.5 0.00 0.00 0.00 53 1020.0
20260510110718 12 6 8.0 22.5 0.00 0.00 0.00 52 1020.0
20260510110217 12 21 8.0 20.9 0.00 0.00 0.00 51 1020.1
20260510105504 12 64 6.4 16.1 0.00 0.00 0.00 53 1020.0
20260510105004 12 46 6.4 16.1 0.00 0.00 0.00 51 1020.2
20260510104503 12 19 8.0 19.3 0.00 0.00 0.00 53 1020.3
20260510104004 12 25 8.0 19.3 0.00 0.00 0.00 53 1020.3
20260510103504 12 46 8.0 19.3 0.00 0.00 0.00 55 1020.4
20260510103004 12 38 8.0 20.9 0.00 0.00 0.00 55 1020.4
20260510102718 12 26 8.0 20.9 0.00 0.00 0.00 58 1020.4
20260510102004 11 21 6.4 17.7 0.00 0.00 0.00 57 1020.4
20260510101504 11 23 6.4 20.9 0.00 0.00 0.00 58 1020.5
20260510101004 11 14 8.0 20.9 0.00 0.00 0.00 58 1020.6
20260510100718 11 8 8.0 20.9 0.00 0.00 0.00 58 1020.7
20260510100004 11 21 8.0 17.7 0.00 0.00 0.00 59 1020.7
20260510095504 11 39 8.0 19.3 0.00 0.00 0.00 59 1020.7
20260510095004 11 41 8.0 19.3 0.00 0.00 0.00 60 1020.8
20260510094504 11 26 8.0 19.3 0.00 0.00 0.00 61 1020.8
20260510094004 11 23 8.0 19.3 0.00 0.00 0.00 61 1021.0
20260510093504 11 20 8.0 20.9 0.00 0.00 0.00 62 1021.0
20260510093004 11 18 8.0 20.9 0.00 0.00 0.00 60 1021.1
20260510092504 11 29 8.0 16.1 0.00 0.00 0.00 61 1020.9
20260510092003 11 27 8.0 16.1 0.00 0.00 0.00 63 1020.9
20260510091503 11 30 8.0 19.3 0.00 0.00 0.00 63 1021.0
20260510091003 11 27 6.4 19.3 0.00 0.00 0.00 65 1021.1
20260510090504 10 21 6.4 17.7 0.00 0.00 0.00 67 1021.2
20260510090004 10 18 6.4 17.7 0.00 0.00 0.00 66 1021.1
20260510085504 10 9 6.4 19.3 0.00 0.00 0.00 67 1021.4
20260510085004 10 13 6.4 19.3 0.00 0.00 0.00 67 1021.2
20260510084504 10 19 6.4 14.5 0.00 0.00 0.00 70 1021.3
20260510084003 10 9 8.0 19.3 0.00 0.00 0.00 69 1021.3
20260510083504 10 15 8.0 19.3 0.00 0.00 0.00 70 1021.2
20260510083003 10 41 6.4 19.3 0.00 0.00 0.00 71 1021.3
20260510082504 10 25 8.0 19.3 0.00 0.00 0.00 72 1021.3
20260510082218 9 13 8.0 17.7 0.00 0.00 0.00 72 1021.2
20260510081504 9 11 6.4 16.1 0.00 0.00 0.00 74 1021.3
20260510081218 9 9 6.4 14.5 0.00 0.00 0.00 76 1021.4
20260510080504 8 2 8.0 19.3 0.00 0.00 0.00 76 1021.3
20260510080004 8 360 8.0 19.3 0.00 0.00 0.00 76 1021.3
20260510075503 8 359 8.0 17.7 0.00 0.00 0.00 77 1021.2
20260510075218 8 6 8.0 17.7 0.00 0.00 0.00 77 1021.2
20260510074503 8 17 8.0 17.7 0.00 0.00 0.00 77 1021.2
20260510074004 8 23 6.4 17.7 0.00 0.00 0.00 76 1021.3
20260510073503 8 20 4.8 14.5 0.00 0.00 0.00 77 1021.3
20260510073003 8 10 6.4 17.7 0.00 0.00 0.00 77 1021.2
20260510072503 8 11 6.4 17.7 0.00 0.00 0.00 77 1021.2
20260510072003 8 9 6.4 16.1 0.00 0.00 0.00 77 1021.3
20260510071503 8 7 6.4 16.1 0.00 0.00 0.00 77 1021.3
20260510071003 8 17 6.4 22.5 0.00 0.00 0.00 78 1021.3
20260510070504 8 19 6.4 22.5 0.00 0.00 0.00 78 1021.2
20260510070004 8 12 6.4 16.1 0.00 0.00 0.00 78 1021.3
20260510065504 8 7 8.0 20.9 0.00 0.00 0.00 78 1021.2
20260510065003 8 6 6.4 20.9 0.00 0.00 0.00 79 1021.2
20260510064504 7 3 4.8 11.3 0.00 0.00 0.00 81 1021.2
20260510064004 7 9 4.8 17.7 0.00 0.00 0.00 81 1021.1
20260510063504 7 11 4.8 17.7 0.00 0.00 0.00 81 1021.1
20260510063003 7 11 4.8 14.5 0.00 0.00 0.00 82 1021.1
20260510062716 7 6 4.8 14.5 0.00 0.00 0.00 82 1021.1
20260510062003 7 5 6.4 16.1 0.00 0.00 0.00 83 1021.0
20260510061718 7 3 6.4 16.1 0.00 0.00 0.00 83 1021.0
20260510061003 7 360 6.4 16.1 0.00 0.00 0.00 83 1021.1
20260510060503 7 2 6.4 16.1 0.00 0.00 0.00 83 1021.1
20260510060217 7 3 6.4 16.1 0.00 0.00 0.00 84 1021.0
20260510055503 7 5 4.8 11.3 0.00 0.00 0.00 84 1021.0
20260510055003 7 2 4.8 12.9 0.00 0.00 0.00 84 1021.0
20260510054503 7 3 4.8 12.9 0.00 0.00 0.00 84 1021.0
20260510054003 7 8 4.8 16.1 0.00 0.00 0.00 84 1021.0
20260510053504 7 7 6.4 17.7 0.00 0.00 0.00 84 1021.0
20260510053003 7 7 4.8 17.7 0.00 0.00 0.00 84 1021.0
20260510052503 7 5 4.8 14.5 0.00 0.00 0.00 84 1020.9
20260510052004 7 2 8.0 17.7 0.00 0.00 0.00 83 1020.9
20260510051504 7 3 8.0 19.3 0.00 0.00 0.00 83 1020.9
20260510051219 7 2 8.0 19.3 0.00 0.00 0.00 83 1021.0
20260510050504 7 358 9.7 19.3 0.00 0.00 0.00 83 1021.0
20260510050003 7 360 9.7 20.9 0.00 0.00 0.00 83 1020.9
20260510045503 7 358 8.0 20.9 0.00 0.00 0.00 82 1021.1
20260510045219 7 358 8.0 20.9 0.00 0.00 0.00 82 1021.0
20260510044504 7 360 8.0 17.7 0.00 0.00 0.00 83 1021.1
20260510044003 7 2 8.0 17.7 0.00 0.00 0.00 82 1021.0
20260510043503 7 3 6.4 19.3 0.00 0.00 0.00 82 1021.0
20260510043003 7 5 6.4 19.3 0.00 0.00 0.00 83 1021.0
20260510042717 7 5 6.4 19.3 0.00 0.00 0.00 83 1021.0
20260510042003 7 357 8.0 19.3 0.00 0.00 0.00 83 1021.0
20260510041503 7 360 9.7 24.1 0.00 0.00 0.00 83 1020.9
20260510041003 7 2 9.7 24.1 0.00 0.00 0.00 83 1020.9
20260510040503 7 1 8.0 17.7 0.00 0.00 0.00 84 1020.9
20260510040003 7 2 8.0 17.7 0.00 0.00 0.00 83 1021.0
20260510035504 7 2 8.0 20.9 0.00 0.00 0.00 84 1021.0
20260510035003 7 4 6.4 20.9 0.00 0.00 0.00 84 1021.1
20260510034719 7 10 6.4 17.7 0.00 0.00 0.00 84 1021.1
20260510034004 7 14 4.8 14.5 0.00 0.00 0.00 85 1021.2
20260510033503 7 6 6.4 16.1 0.00 0.00 0.00 86 1021.2
20260510033003 7 1 6.4 19.3 0.00 0.00 0.00 86 1021.3
20260510032503 7 1 4.8 19.3 0.00 0.00 0.00 86 1021.3
20260510032004 7 357 4.8 14.5 0.00 0.00 0.00 86 1021.4
20260510031719 7 355 4.8 14.5 0.00 0.00 0.00 86 1021.4
20260510031004 7 358 6.4 17.7 0.00 0.00 0.00 86 1021.4
20260510030503 7 357 6.4 17.7 0.00 0.00 0.00 85 1021.4
20260510030004 7 1 6.4 17.7 0.00 0.00 0.00 85 1021.5
20260510025503 7 2 6.4 19.3 0.00 0.00 0.00 85 1021.4
20260510025003 8 359 8.0 19.3 0.00 0.00 0.00 84 1021.5
20260510024504 7 357 6.4 16.1 0.00 0.00 0.00 84 1021.5
20260510024004 7 358 6.4 20.9 0.00 0.00 0.00 84 1021.5
20260510023503 7 359 6.4 20.9 0.00 0.00 0.00 84 1021.5
20260510023004 8 359 8.0 22.5 0.00 0.00 0.00 84 1021.5
20260510022503 8 359 8.0 22.5 0.00 0.00 0.00 84 1021.4
20260510022003 8 358 8.0 19.3 0.00 0.00 0.00 85 1021.5
20260510021503 8 360 9.7 19.3 0.00 0.00 0.00 85 1021.3
20260510021003 8 1 8.0 19.3 0.00 0.00 0.00 85 1021.3
20260510020503 8 2 6.4 16.1 0.00 0.00 0.00 85 1021.3
20260510020218 8 2 6.4 16.1 0.00 0.00 0.00 85 1021.3
20260510015504 8 1 6.4 17.7 0.00 0.00 0.00 85 1021.3
20260510015003 8 359 6.4 17.7 0.00 0.00 0.00 85 1021.2
20260510014716 8 359 6.4 17.7 0.00 0.00 0.00 85 1021.2
20260510014218 8 360 8.0 16.1 0.00 0.00 0.00 86 1021.3
20260510013503 8 1 8.0 19.3 0.00 0.00 0.00 86 1021.3
20260510013003 8 360 8.0 19.3 0.00 0.00 0.00 86 1021.3
20260510012503 8 2 8.0 17.7 0.00 0.00 0.00 86 1021.3
20260510012004 8 8 6.4 17.7 0.00 0.00 0.00 86 1021.4
20260510011504 8 6 6.4 17.7 0.00 0.00 0.00 86 1021.3
20260510011219 8 4 6.4 19.3 0.00 0.00 0.00 86 1021.4
20260510010503 8 360 8.0 19.3 0.00 0.00 0.00 86 1021.4
20260510010003 8 2 6.4 16.1 0.00 0.00 0.00 87 1021.4
20260510005503 8 1 6.4 19.3 0.00 0.00 0.00 87 1021.3
20260510005003 8 358 8.0 19.3 0.00 0.00 0.00 87 1021.3
20260510004503 8 354 6.4 16.1 0.00 0.00 0.00 87 1021.3
20260510004003 8 354 6.4 16.1 0.00 0.00 0.00 87 1021.3
20260510003504 8 357 8.0 20.9 0.00 0.00 0.00 87 1021.3
20260510003003 8 1 8.0 20.9 0.00 0.00 0.00 87 1021.3
20260510002504 8 5 8.0 22.5 0.00 0.00 0.00 87 1021.3
20260510002003 8 4 9.7 22.5 0.00 0.00 0.00 87 1021.3
20260510001504 8 5 8.0 19.3 0.00 0.00 0.00 87 1021.4
20260510001004 8 2 6.4 19.3 0.00 0.00 0.00 88 1021.4
20260510000503 8 3 8.0 19.3 0.00 0.00 0.00 88 1021.5
20260510000003 8 2 8.0 20.9 0.00 0.00 0.00 89 1021.4
20260509235503 8 360 8.0 20.9 0.00 0.00 0.00 89 1021.5
20260509235004 8 8 6.4 19.3 0.00 0.00 0.00 89 1021.5